DELTA 1 DEB, 42646

Orbit data source: Space-Track

DELTA 1 DEB, 42646 is space debris in SSO originally from a launch on Thu, 12 Jun 1975 UTC launched from the Air Force Western Test Range (AFWTR). Debris objects in space refer to the collection of defunct objects orbiting the Earth. Examples of debris include non-operational satellites, rocket bodies, and fragments generated from explosions, collisions, or faulty payload assembly.

Loading next visibility...
Identifier
42646, 1975-052MF
Orbit
SSO
Country
Flag of USUS
Related business
Manufacturer
Unknown
Mission
Spacecraft
Bus & Motor
Unknown
Mass
Unknown
Launch date (UTC)
1975-06-12 (51 years ago)
Launch vehicle
Unknown
Launch site
Air Force Western Test Range (AFWTR)
Object type
Payload
Rocket body
Debris
Shape & HBR
Unknown shape, 0.1 m
Radar Cross Section
Medium (>0.1 m² and <1 m²)

Expand to show TLE details & history
Last TLE update: 3 days ago

TLE from 3 days ago
0 DELTA 1 DEB
1 42646U 75052MF  26170.00565239  .00000075  00000-0  23145-3 0  9997
2 42646 100.0098  86.8576 0053653 211.0527 148.7423 13.36126370567315
Epoch: 2026-06-19T00:08Z
TLE epoch observation values (Epoch: 2026-06-19T00:08:08.366Z)
Latitude
-0.00005°
Longitude
177.58192°
Altitude
1,160.97 km
Speed
7.256 km/s
True Right ascension
05h 47m 25s
True Declination
0° 00' 00"
Sunlit
Object was in daylight at epoch
Visualization orbit readout
Latitude
Unknown
Longitude
Unknown
Altitude
Unknown
Speed
Unknown
Apparent Right ascension
Unknown
Apparent Declination
Unknown
Sunlit
N/A
Visualization observer readout
Local Sidereal Time
12:50:33
Azimuth
Unknown
Elevation
Unknown
Doppler factor
Unknown
Orbital elements
Apogee altitude
1,161.315 km
Perigee altitude
1,080.844 km
Semi-major axis
7,499.217 km
Eccentricity
0.00537
Inclination
100.0098°
RAAN
86.8576°
Arg. of periapsis
211.0527°
True anomaly
149.0595°
Mean anomaly
148.7423°
Eccentric anomaly
148.90108°
Mean motion
3.3421 °/min
Orbital period
107.72 mins
BSTAR
0.00023145
Loading maneuver chart data...
Computing Atmospheric mass density...

Documentation

Showing up to 5 results
|